EW3668 Weather Reports


time (UTC)temp
F
wind
direction
speed
knots
gust
knots
rain 1hr
in
rain 24hr
in
rain mn
in
humidity
%
barometer
mb
20260906123017 75 80 0.0 1.7 0.00 0.09 0.00 100 1013.5
20260906121616 74 88 0.0 1.7 0.00 0.09 0.00 100 1013.5
20260906120037 74 96 0.0 0.0 0.00 0.09 0.00 100 1013.5
20260906114536 73 77 0.0 0.0 0.00 0.09 0.00 100 1013.3
20260906113028 73 102 0.0 0.0 0.00 0.09 0.00 100 1013.1
20260906111530 73 101 0.0 0.9 0.00 0.09 0.00 100 1013.0
20260906110024 73 103 0.0 0.0 0.00 0.09 0.00 100 1012.8
20260906104523 73 103 0.0 0.0 0.00 0.09 0.00 100 1012.6
20260906103019 73 103 0.0 0.0 0.00 0.09 0.00 100 1012.5
20260906101518 73 124 0.0 0.0 0.00 0.09 0.00 100 1012.5
20260906100026 73 94 0.0 0.9 0.00 0.09 0.00 99 1012.3
20260906094514 73 109 0.0 0.9 0.00 0.09 0.00 99 1012.0
20260906093048 73 72 0.0 0.0 0.00 0.09 0.00 99 1011.7
20260906091544 73 71 0.0 0.0 0.00 0.09 0.00 99 1011.7
20260906090050 73 110 0.0 0.0 0.00 0.09 0.00 100 1011.6
20260906084542 73 315 0.0 0.0 0.00 0.09 0.00 100 1011.4
20260906083046 72 205 0.0 0.0 0.00 0.09 0.00 100 1011.4
20260906081539 72 205 0.0 0.0 0.00 0.09 0.00 100 1011.4
20260906080042 71 205 0.0 0.0 0.00 0.09 0.00 99 1011.2
20260906074535 71 205 0.0 0.0 0.00 0.09 0.00 100 1011.0
20260906073034 71 205 0.0 0.0 0.00 0.09 0.00 99 1010.8
20260906071533 72 205 0.0 0.0 0.00 0.09 0.00 99 1010.9
20260906070002 72 205 0.0 0.0 0.00 0.09 0.00 99 1011.0
20260906064504 72 205 0.0 0.0 0.00 0.09 0.00 99 1011.1
20260906063059 72 205 0.0 0.0 0.00 0.09 0.00 99 1011.2
20260906061559 72 205 0.0 0.0 0.00 0.09 0.00 99 1011.2
20260906060132 72 205 0.0 0.0 0.00 0.09 0.00 99 1011.3
20260906054606 73 205 0.0 0.0 0.00 0.09 0.00 99 1011.6
20260906053048 73 205 0.0 0.0 0.00 0.09 0.00 99 1011.8
20260906051547 73 205 0.0 0.0 0.00 0.09 0.00 100 1011.9
20260906050045 73 205 0.0 0.0 0.00 0.09 0.00 100 1011.9
20260906044544 74 205 0.0 0.0 0.00 0.09 0.00 100 1012.1
20260906043042 74 205 0.0 0.0 0.00 0.09 0.00 100 1012.2
20260906041538 74 205 0.0 0.0 0.00 0.09 0.09 100 1012.3
20260906040038 74 198 0.0 0.0 0.00 0.09 0.09 99 1012.4
20260906034552 74 113 0.0 0.0 0.00 0.09 0.09 100 1012.3
20260906033039 74 112 0.0 0.0 0.00 0.09 0.09 100 1012.2
20260906031535 74 113 0.0 0.0 0.00 0.09 0.09 100 1012.2
20260906030034 74 113 0.0 0.0 0.00 0.09 0.09 100 1012.1
20260906024536 74 113 0.0 0.0 0.00 0.09 0.09 100 1012.0
20260906023031 74 293 0.0 0.0 0.00 0.09 0.09 99 1012.1
20260906021538 74 293 0.0 0.0 0.00 0.09 0.09 99 1012.0
20260906020028 74 293 0.0 0.0 0.00 0.09 0.09 100 1011.8
20260906014528 74 293 0.0 0.0 0.00 0.09 0.09 100 1011.9
20260906013025 74 293 0.0 0.0 0.00 0.09 0.09 100 1011.8
20260906011525 75 293 0.0 0.0 0.00 0.09 0.09 100 1011.7
20260906010147 75 293 0.0 0.0 0.00 0.09 0.09 100 1011.5
20260906004524 75 293 0.0 0.0 0.00 0.09 0.09 100 1011.5
20260906003053 75 293 0.0 0.0 0.00 0.09 0.09 100 1011.5
20260906001602 76 293 0.0 0.0 0.00 0.09 0.09 100 1011.3
20260906000023 76 293 0.0 0.0 0.00 0.09 0.09 100 1011.0
20260905234522 76 293 0.0 0.0 0.00 0.09 0.09 100 1010.9
20260905233023 76 293 0.0 0.0 0.00 0.09 0.09 100 1010.7
20260905231523 76 293 0.0 0.0 0.00 0.09 0.09 100 1010.4
20260905230022 77 293 0.0 0.0 0.00 0.09 0.09 100 1010.0
20260905224522 77 293 0.0 0.0 0.00 0.09 0.09 100 1009.8
20260905223032 77 293 0.0 0.0 0.00 0.09 0.09 100 1009.9
20260905221521 76 293 0.0 0.0 0.00 0.09 0.09 100 1010.5
20260905220015 76 293 0.0 1.7 0.00 0.09 0.09 100 1010.6
20260905214515 76 288 0.0 0.9 0.00 0.09 0.09 100 1010.3
20260905213015 76 290 0.0 0.9 0.00 0.09 0.09 100 1010.1
20260905211512 76 292 0.0 0.9 0.00 0.09 0.09 100 1010.0
20260905210011 76 293 0.0 0.9 0.09 0.09 0.09 100 1010.1
20260905204510 76 144 0.0 1.7 0.09 0.09 0.09 100 1009.9
20260905203012 76 61 0.0 0.0 0.09 0.09 0.09 100 1009.9
20260905201517 77 61 0.0 0.9 0.09 0.09 0.09 99 1010.0
20260905200008 82 72 0.0 1.7 0.00 0.00 0.00 84 1010.7
20260905194507 84 70 0.0 1.7 0.00 0.00 0.00 83 1011.0
20260905193015 88 68 0.9 7.0 0.00 0.00 0.00 74 1010.9
20260905191504 96 112 0.0 0.0 0.00 0.00 0.00 65 1009.6
20260905190003 97 287 0.0 1.7 0.00 0.00 0.00 60 1009.5
20260905184503 99 340 0.9 3.5 0.00 0.00 0.00 57 1009.5
20260905183002 99 37 0.0 1.7 0.00 0.00 0.00 58 1009.6
20260905181535 100 212 0.0 2.6 0.00 0.00 0.00 58 1010.0
20260905180028 99 139 0.0 2.6 0.00 0.00 0.00 60 1010.3
20260905174522 99 242 0.0 2.6 0.00 0.00 0.00 61 1010.8
20260905173020 98 356 0.0 3.5 0.00 0.00 0.00 62 1011.2
20260905171516 99 95 0.0 2.6 0.00 0.00 0.00 61 1011.3
20260905170012 98 51 0.0 2.6 0.00 0.00 0.00 61 1011.6
20260905164506 97 262 0.0 1.7 0.00 0.00 0.00 64 1011.8
20260905163001 97 123 0.0 1.7 0.00 0.00 0.00 65 1011.9
20260905161559 96 80 0.0 2.6 0.00 0.00 0.00 66 1012.1
20260905160056 96 106 0.0 2.6 0.00 0.00 0.00 66 1012.4
20260905154520 94 124 0.0 1.7 0.00 0.00 0.00 71 1012.6
20260905153025 93 214 0.0 2.6 0.00 0.00 0.00 73 1012.8
20260905151510 92 110 0.0 3.5 0.00 0.00 0.00 73 1012.9
20260905150012 92 342 0.0 2.6 0.00 0.00 0.00 74 1012.9
20260905144508 91 236 0.0 2.6 0.00 0.00 0.00 80 1012.9
20260905143002 89 37 0.0 0.9 0.00 0.00 0.00 82 1012.9
20260905141556 88 264 0.9 3.5 0.00 0.00 0.00 82 1012.8
20260905140055 87 274 0.0 0.9 0.00 0.00 0.00 84 1012.7
20260905134551 87 297 0.0 1.7 0.00 0.00 0.00 86 1012.8
20260905133047 85 281 0.0 0.9 0.00 0.00 0.00 89 1012.8
20260905131551 83 270 0.0 2.6 0.00 0.00 0.00 93 1012.8
20260905130038 83 264 0.0 1.7 0.00 0.00 0.00 93 1012.9
20260905124535 81 208 0.0 0.9 0.00 0.00 0.00 95 1013.0